This is the latest recevied weather packets stored in our database for station/object KB8SSH. If no packets are shown the sender has not sent any weather packets the latest 10 day(s).
| Time | Temp. | Humidity | Pressure | Rain* | Wind** | Luminosity | Snow |
|---|---|---|---|---|---|---|---|
| 1777737851 | 8.33° C | 54% | 1051.2 hPa | 0 mm | - | 738 W/m² | - |
| 1777737549 | 8.33° C | 59% | 1051.6 hPa | 0 mm | - | 147 W/m² | - |
| 1777737242 | 8.89° C | 59% | 1051.2 hPa | 0 mm | - | 128 W/m² | - |
| 1777736937 | 7.22° C | 56% | 1051.6 hPa | 0 mm | - | 121 W/m² | - |
| 1777736032 | 7.78° C | 59% | 1051.6 hPa | 0 mm | - | 468 W/m² | - |
| 1777735729 | 7.22° C | 57% | 1051.6 hPa | 0 mm | - | 135 W/m² | - |
| 1777735426 | 7.22° C | 61% | 1051.2 hPa | 0 mm | - | 149 W/m² | - |
| 1777735124 | 7.22° C | 62% | 1051.6 hPa | 0 mm | - | 124 W/m² | - |
| 1777734820 | 8.33° C | 61% | 1051.2 hPa | 0 mm | - | 124 W/m² | - |
| 1777734518 | 7.78° C | 63% | 1051.2 hPa | 0 mm | - | 180 W/m² | - |
| 1777734214 | 7.78° C | 63% | 1051.2 hPa | 0 mm | - | 98 W/m² | - |
| 1777733910 | 7.78° C | 59% | 1051.2 hPa | 0 mm | - | 122 W/m² | - |
| 1777733607 | 7.78° C | 64% | 1051.2 hPa | 0 mm | - | 141 W/m² | - |
| 1777733304 | 7.78° C | 65% | 1050.9 hPa | 0 mm | - | 113 W/m² | - |
| 1777733001 | 7.78° C | 65% | 1050.9 hPa | 0 mm | - | 137 W/m² | - |
| 1777732696 | 6.67° C | 64% | 1051.2 hPa | 0 mm | - | 160 W/m² | - |
| 1777732394 | 6.67° C | 66% | 1051.2 hPa | 0 mm | - | 94 W/m² | - |
| 1777732092 | 7.22° C | 66% | 1051.2 hPa | 0 mm | - | 129 W/m² | - |
| 1777731788 | 6.67° C | 68% | 1051.2 hPa | 0 mm | - | 101 W/m² | - |
| 1777731485 | 6.11° C | 68% | 1051.2 hPa | 0 mm | - | 107 W/m² | - |
| 1777731184 | 6.67° C | 68% | 1050.9 hPa | 0 mm | - | 62 W/m² | - |
| 1777730881 | 6.11° C | 71% | 1051.2 hPa | 0 mm | - | 78 W/m² | - |
| 1777730578 | 6.11° C | 72% | 1050.9 hPa | 0 mm | - | 48 W/m² | - |
| 1777730274 | 6.11° C | 73% | 1051.2 hPa | 0 mm | - | 42 W/m² | - |
| 1777729971 | 5.56° C | 74% | 1051.2 hPa | 0 mm | - | 41 W/m² | - |
* Rain latest hour (hover to see other rain measurements)
** Current wind speed in m/s (hover to see current wind gust speed)